This is the latest recevied weather packets stored in our database for station/object XE2RCS-1. If no packets are shown the sender has not sent any weather packets the latest 10 day(s).
| Time | Temp. | Humidity | Pressure | Rain* | Wind** | Luminosity | Snow |
|---|---|---|---|---|---|---|---|
| 1787849227 | 25° C | 39% | 1018 hPa | 0 mm | - | - | - |
| 1787848626 | 25° C | 40% | 1018 hPa | 0 mm | - | - | - |
| 1787848025 | 25° C | 39% | 1023 hPa | 0 mm | - | - | - |
| 1787847425 | 25° C | 39% | 1022 hPa | 0 mm | - | - | - |
| 1787846824 | 24.44° C | 40% | 1022 hPa | 0 mm | - | - | - |
| 1787846224 | 24.44° C | 40% | 1020 hPa | 0 mm | - | - | - |
| 1787845623 | 24.44° C | 43% | 1020 hPa | 0 mm | - | - | - |
| 1787845022 | 24.44° C | 44% | 1020 hPa | 0 mm | - | - | - |
| 1787844422 | 24.44° C | 46% | 1023 hPa | 0 mm | - | - | - |
| 1787843821 | 24.44° C | 50% | 1022 hPa | 0 mm | - | - | - |
| 1787843220 | 24.44° C | 61% | 1022 hPa | 0 mm | - | - | - |
| 1787842620 | 24.44° C | 48% | 1020 hPa | 0 mm | - | - | - |
| 1787842019 | 23.89° C | 62% | 1020 hPa | 0 mm | - | - | - |
| 1787841418 | 22.78° C | 48% | 1020 hPa | 0 mm | - | - | - |
| 1787840823 | 22.22° C | 50% | 1023 hPa | 0 mm | - | - | - |
| 1787840217 | 22.22° C | 55% | 1022 hPa | 0 mm | - | - | - |
| 1787839616 | 21.67° C | 66% | 1022 hPa | 0 mm | - | - | - |
| 1787839015 | 21.11° C | 57% | 1020 hPa | 0 mm | - | - | - |
| 1787838415 | 20.56° C | 59% | 1020 hPa | 0 mm | - | - | - |
| 1787837814 | 20° C | 74% | 1020 hPa | 0 mm | - | - | - |
| 1787837213 | 20° C | 74% | 1022 hPa | 0 mm | - | - | - |
| 1787836613 | 19.44° C | 73% | 1022 hPa | 0 mm | - | - | - |
| 1787836012 | 19.44° C | 71% | 1022 hPa | 0 mm | - | - | - |
| 1787835412 | 19.44° C | 61% | 1020 hPa | 0 mm | - | - | - |
| 1787834811 | 19.44° C | 60% | 1020 hPa | 0 mm | - | - | - |
* Rain latest hour (hover to see other rain measurements)
** Current wind speed in m/s (hover to see current wind gust speed)